URO61W LEPA-LEMD

Flight info

Callsign URO61W
Flight time 1h 0m
Altitude 31000
Route EPAMA N733 PRADO
Aircraft A343/H-SDE2E3FGHIJ4J5M1RWXY/LB1D1

Departure

Time 2026-04-30 20:45
Airport Palma de Mallorca Airport (LEPA)

Arrival

Time 2026-04-30 21:45
Airport Adolfo Suárez Madrid–Barajas Airport (LEMD)
Time Latitude Longitude Altitude Speed Heading
2026-04-30 20:16 39.54968 2.72263 41 ft 0 kts 330°
2026-04-30 20:33 39.54963 2.72267 39 ft 2 kts 332°
2026-04-30 20:33 39.54935 2.72278 38 ft 2 kts
2026-04-30 20:33 39.54924 2.72277 38 ft 2 kts
2026-04-30 20:35 39.54911 2.72320 41 ft 0 kts 57°
2026-04-30 20:36 39.54914 2.72325 38 ft 8 kts 57°
2026-04-30 20:37 39.55008 2.72521 41 ft 22 kts 59°
2026-04-30 20:37 39.55070 2.72656 41 ft 3 kts 59°
2026-04-30 20:37 39.55088 2.72695 41 ft 9 kts 59°
2026-04-30 20:37 39.55131 2.72790 41 ft 16 kts 59°
2026-04-30 20:38 39.55198 2.72933 41 ft 21 kts 57°
2026-04-30 20:38 39.55286 2.73109 41 ft 26 kts 58°
2026-04-30 20:38 39.55388 2.73326 41 ft 31 kts 59°
2026-04-30 20:39 39.55440 2.73643 41 ft 12 kts 150°
2026-04-30 20:39 39.55351 2.73714 39 ft 18 kts 148°
2026-04-30 20:39 39.55231 2.73808 40 ft 23 kts 149°
2026-04-30 20:40 39.54900 2.74068 41 ft 31 kts 148°
2026-04-30 20:40 39.54758 2.74059 41 ft 22 kts 230°
2026-04-30 20:40 39.54670 2.73878 41 ft 26 kts 238°
2026-04-30 20:41 39.54453 2.73417 39 ft 33 kts 238°
2026-04-30 20:41 39.54329 2.73153 41 ft 32 kts 238°
2026-04-30 20:41 39.54221 2.72941 41 ft 18 kts 222°
2026-04-30 20:41 39.54154 2.72958 41 ft 8 kts 117°
2026-04-30 20:42 39.54153 2.72972 41 ft 0 kts 96°
2026-04-30 20:43 39.54152 2.72982 41 ft 4 kts 94°
2026-04-30 20:43 39.54151 2.73053 41 ft 12 kts 91°
2026-04-30 20:43 39.54150 2.73192 41 ft 19 kts 87°
2026-04-30 20:44 39.54288 2.73509 41 ft 24 kts 59°
2026-04-30 20:44 39.54336 2.73611 41 ft 0 kts 58°
2026-04-30 20:44 39.54644 2.74261 41 ft 113 kts 58°
2026-04-30 20:45 39.55863 2.76833 400 ft 199 kts 58°
2026-04-30 20:45 39.56610 2.78409 1092 ft 214 kts 58°
2026-04-30 20:45 39.57400 2.80077 1896 ft 202 kts 59°
2026-04-30 20:46 39.59903 2.85318 3805 ft 256 kts 59°
2026-04-30 20:46 39.60830 2.87254 4191 ft 257 kts 58°
2026-04-30 20:47 39.63259 2.90803 5488 ft 270 kts 33°
2026-04-30 20:47 39.65071 2.91501 6170 ft 278 kts
2026-04-30 20:48 39.68549 2.89334 7838 ft 295 kts 309°
2026-04-30 20:48 39.69445 2.86937 8599 ft 296 kts 284°
2026-04-30 20:48 39.69501 2.84307 8964 ft 300 kts 257°
2026-04-30 20:48 39.68934 2.81633 9169 ft 307 kts 253°
2026-04-30 20:49 39.68703 2.78886 9246 ft 309 kts 274°
2026-04-30 20:49 39.69109 2.76189 9330 ft 308 kts 283°
2026-04-30 20:49 39.69693 2.73532 9388 ft 307 kts 287°
2026-04-30 20:50 39.71086 2.68292 9417 ft 302 kts 290°
2026-04-30 20:50 39.71846 2.65746 9432 ft 303 kts 292°
2026-04-30 20:50 39.72635 2.63200 9430 ft 304 kts 292°
2026-04-30 20:50 39.73438 2.60688 9421 ft 303 kts 293°
2026-04-30 20:51 39.74280 2.58143 9422 ft 304 kts 293°
2026-04-30 20:51 39.75956 2.53111 9425 ft 303 kts 293°
2026-04-30 20:51 39.76793 2.50597 9427 ft 303 kts 293°
2026-04-30 20:52 39.77631 2.48083 9426 ft 304 kts 293°
2026-04-30 20:52 39.78471 2.45560 9428 ft 304 kts 293°
2026-04-30 20:52 39.80139 2.40549 10127 ft 305 kts 292°
2026-04-30 20:53 39.80989 2.38002 10848 ft 313 kts 292°
2026-04-30 20:53 39.81615 2.35215 11152 ft 332 kts 274°
2026-04-30 20:53 39.81514 2.32156 11531 ft 347 kts 261°
2026-04-30 20:54 39.80624 2.25737 12440 ft 374 kts 255°
2026-04-30 20:54 39.80018 2.22398 12926 ft 385 kts 253°
2026-04-30 20:54 39.79340 2.18987 13445 ft 393 kts 252°
2026-04-30 20:55 39.77878 2.12152 14237 ft 399 kts 251°
2026-04-30 20:55 39.77101 2.08676 14337 ft 401 kts 251°
2026-04-30 20:55 39.76309 2.05195 14423 ft 400 kts 250°
2026-04-30 20:56 39.74712 1.98275 15631 ft 401 kts 250°
2026-04-30 20:56 39.73901 1.94800 16346 ft 403 kts 250°
2026-04-30 20:56 39.72250 1.87781 17813 ft 396 kts 250°
2026-04-30 20:57 39.71479 1.84493 18124 ft 372 kts 249°
2026-04-30 20:57 39.70727 1.81298 18300 ft 362 kts 249°
2026-04-30 20:57 39.69984 1.78169 18374 ft 366 kts 249°
2026-04-30 20:58 39.68456 1.71798 18415 ft 370 kts 249°
2026-04-30 20:58 39.67689 1.68606 18419 ft 369 kts 249°
2026-04-30 20:58 39.66934 1.65468 18420 ft 369 kts 249°
2026-04-30 20:58 39.66171 1.62296 18422 ft 369 kts 249°
2026-04-30 20:59 39.64639 1.55943 18425 ft 369 kts 249°
2026-04-30 20:59 39.63870 1.52759 18424 ft 370 kts 249°
2026-04-30 21:00 39.62334 1.46403 18425 ft 369 kts 249°
2026-04-30 21:00 39.61200 1.39926 18426 ft 376 kts 267°
2026-04-30 21:01 39.61806 1.33136 18427 ft 381 kts 275°
2026-04-30 21:01 39.62249 1.29752 18428 ft 381 kts 276°
2026-04-30 21:01 39.63250 1.23012 18427 ft 381 kts 278°
2026-04-30 21:02 39.63784 1.19647 18428 ft 381 kts 278°
2026-04-30 21:02 39.64329 1.16284 18429 ft 381 kts 278°
2026-04-30 21:02 39.64883 1.12925 18428 ft 382 kts 278°
2026-04-30 21:02 39.65445 1.09549 18427 ft 382 kts 278°
2026-04-30 21:03 39.66009 1.06189 18427 ft 381 kts 279°
2026-04-30 21:03 39.66576 1.02831 18428 ft 381 kts 279°
2026-04-30 21:03 39.66961 1.00561 18428 ft 381 kts 279°
2026-04-30 21:03 39.67714 0.96115 18427 ft 381 kts 279°
2026-04-30 21:04 39.68101 0.93841 18429 ft 382 kts 279°
2026-04-30 21:04 39.68673 0.90478 18427 ft 382 kts 279°
2026-04-30 21:04 39.69818 0.83747 18428 ft 381 kts 279°
2026-04-30 21:05 39.70389 0.80385 18427 ft 381 kts 279°
2026-04-30 21:05 39.70960 0.77029 18428 ft 381 kts 279°
2026-04-30 21:05 39.71715 0.72573 18429 ft 381 kts 279°
2026-04-30 21:05 39.72100 0.70301 18427 ft 382 kts 279°
2026-04-30 21:06 39.72670 0.66936 18428 ft 382 kts 279°
2026-04-30 21:06 39.73231 0.63615 18428 ft 381 kts 279°
2026-04-30 21:06 39.73808 0.60200 18427 ft 381 kts 279°
2026-04-30 21:06 39.74375 0.56839 18428 ft 381 kts 279°
2026-04-30 21:07 39.74939 0.53478 18428 ft 381 kts 279°
2026-04-30 21:07 39.75506 0.50107 18426 ft 382 kts 279°
2026-04-30 21:07 39.76071 0.46738 18428 ft 382 kts 278°
2026-04-30 21:07 39.76633 0.43372 18428 ft 382 kts 278°
2026-04-30 21:08 39.77198 0.40000 18427 ft 381 kts 278°
2026-04-30 21:08 39.77751 0.36679 18495 ft 380 kts 278°
2026-04-30 21:08 39.78311 0.33315 18793 ft 382 kts 278°
2026-04-30 21:08 39.78874 0.29941 19484 ft 383 kts 278°
2026-04-30 21:09 39.79447 0.26498 20173 ft 385 kts 278°
2026-04-30 21:09 39.80005 0.23133 20837 ft 387 kts 278°
2026-04-30 21:09 39.80579 0.19665 21517 ft 389 kts 278°
2026-04-30 21:09 39.81148 0.16219 22173 ft 391 kts 278°
2026-04-30 21:10 39.81718 0.12753 22847 ft 393 kts 278°
2026-04-30 21:10 39.82281 0.09317 23493 ft 394 kts 278°
2026-04-30 21:10 39.82853 0.05824 24126 ft 396 kts 278°
2026-04-30 21:10 39.83426 0.02309 24749 ft 398 kts 278°
2026-04-30 21:11 39.84001 -0.01225 25343 ft 400 kts 278°
2026-04-30 21:11 39.84576 -0.04767 25929 ft 402 kts 278°
2026-04-30 21:11 39.85153 -0.08331 26492 ft 403 kts 278°
2026-04-30 21:11 39.85732 -0.11909 27031 ft 405 kts 278°
2026-04-30 21:12 39.86312 -0.15507 27558 ft 407 kts 278°
2026-04-30 21:12 39.86894 -0.19120 28060 ft 409 kts 278°
2026-04-30 21:12 39.87481 -0.22762 28497 ft 413 kts 279°
2026-04-30 21:12 39.88075 -0.26444 28840 ft 418 kts 278°
2026-04-30 21:13 39.88667 -0.30147 29394 ft 418 kts 279°
2026-04-30 21:13 39.89266 -0.33880 29791 ft 423 kts 278°
2026-04-30 21:13 39.89871 -0.37653 30057 ft 430 kts 278°
2026-04-30 21:13 39.90481 -0.41483 30506 ft 431 kts 279°
2026-04-30 21:14 39.91082 -0.45278 30989 ft 423 kts 279°
2026-04-30 21:14 39.91678 -0.49026 31241 ft 425 kts 279°
2026-04-30 21:14 39.92282 -0.52848 31349 ft 434 kts 279°
2026-04-30 21:14 39.92891 -0.56708 31392 ft 436 kts 279°
2026-04-30 21:15 39.94114 -0.64430 31431 ft 435 kts 279°
2026-04-30 21:15 39.95345 -0.72203 31427 ft 442 kts 279°
2026-04-30 21:16 39.96579 -0.80060 31414 ft 444 kts 278°
2026-04-30 21:16 39.97197 -0.84005 31185 ft 446 kts 278°
2026-04-30 21:16 39.97816 -0.87963 30838 ft 446 kts 278°
2026-04-30 21:17 39.98434 -0.91938 30407 ft 446 kts 278°
2026-04-30 21:17 39.99043 -0.95874 29931 ft 442 kts 278°
2026-04-30 21:17 39.99649 -0.99791 29306 ft 440 kts 278°
2026-04-30 21:17 40.00248 -1.03688 28871 ft 434 kts 278°
2026-04-30 21:18 40.00838 -1.07525 28303 ft 431 kts 278°
2026-04-30 21:18 40.01349 -1.10858 27774 ft 430 kts 277°
2026-04-30 21:18 40.01935 -1.14691 27130 ft 430 kts 277°
2026-04-30 21:19 40.02516 -1.18501 26578 ft 427 kts 277°
2026-04-30 21:19 40.03092 -1.22286 26111 ft 423 kts 277°
2026-04-30 21:19 40.03659 -1.26025 25712 ft 417 kts 277°
2026-04-30 21:19 40.04221 -1.29724 25095 ft 416 kts 277°
2026-04-30 21:20 40.04779 -1.33433 24521 ft 416 kts 277°
2026-04-30 21:20 40.05333 -1.37125 24019 ft 414 kts 277°
2026-04-30 21:20 40.05884 -1.40814 23415 ft 415 kts 277°
2026-04-30 21:20 40.06433 -1.44518 22875 ft 415 kts 278°
2026-04-30 21:21 40.06981 -1.48207 22359 ft 414 kts 278°
2026-04-30 21:21 40.07530 -1.51887 21992 ft 410 kts 278°
2026-04-30 21:21 40.08610 -1.59133 21106 ft 405 kts 278°
2026-04-30 21:22 40.09146 -1.62753 20621 ft 404 kts 278°
2026-04-30 21:22 40.10722 -1.73478 19265 ft 399 kts 278°
2026-04-30 21:23 40.11243 -1.77026 18904 ft 396 kts 278°
2026-04-30 21:23 40.11765 -1.80600 18639 ft 403 kts 278°
2026-04-30 21:23 40.12808 -1.87724 18474 ft 395 kts 278°
2026-04-30 21:24 40.13325 -1.91248 18273 ft 394 kts 278°
2026-04-30 21:24 40.13672 -1.93625 18078 ft 393 kts 278°
2026-04-30 21:25 40.14390 -1.97998 17539 ft 392 kts 283°
2026-04-30 21:25 40.15132 -2.01412 17149 ft 389 kts 284°
2026-04-30 21:25 40.15829 -2.04813 16716 ft 387 kts 282°
2026-04-30 21:26 40.17102 -2.11587 15932 ft 380 kts 282°
2026-04-30 21:26 40.17722 -2.14943 15515 ft 378 kts 282°
2026-04-30 21:27 40.18921 -2.21598 14639 ft 375 kts 282°
2026-04-30 21:27 40.19504 -2.24894 14223 ft 371 kts 282°
2026-04-30 21:27 40.20080 -2.28183 13787 ft 369 kts 282°
2026-04-30 21:28 40.21206 -2.34681 12931 ft 364 kts 282°
2026-04-30 21:28 40.21756 -2.37895 12500 ft 361 kts 281°
2026-04-30 21:28 40.22344 -2.44354 11608 ft 355 kts 272°
2026-04-30 21:29 40.22455 -2.47572 11173 ft 352 kts 271°
2026-04-30 21:29 40.22669 -2.57087 9842 ft 347 kts 271°
2026-04-30 21:30 40.22759 -2.63397 9506 ft 342 kts 270°
2026-04-30 21:31 40.22886 -2.72708 9440 ft 344 kts 270°
2026-04-30 21:31 40.22972 -2.78961 9435 ft 343 kts 270°
2026-04-30 21:32 40.23049 -2.85200 9436 ft 344 kts 270°
2026-04-30 21:32 40.23089 -2.88326 9431 ft 344 kts 270°
2026-04-30 21:32 40.23131 -2.91457 9430 ft 343 kts 270°
2026-04-30 21:32 40.23176 -2.94580 9432 ft 343 kts 270°
2026-04-30 21:33 40.23222 -2.97696 9433 ft 343 kts 270°
2026-04-30 21:33 40.23318 -3.03946 9429 ft 343 kts 270°
2026-04-30 21:33 40.23362 -3.07062 9429 ft 343 kts 270°
2026-04-30 21:34 40.23406 -3.10183 9428 ft 343 kts 270°
2026-04-30 21:34 40.23494 -3.16434 9431 ft 344 kts 270°
2026-04-30 21:34 40.23536 -3.19561 9403 ft 344 kts 270°
2026-04-30 21:35 40.23730 -3.22672 9296 ft 345 kts 281°
2026-04-30 21:35 40.24550 -3.25623 8883 ft 347 kts 301°
2026-04-30 21:35 40.26097 -3.27979 8546 ft 339 kts 319°
2026-04-30 21:35 40.27826 -3.30053 8186 ft 333 kts 313°
2026-04-30 21:36 40.28963 -3.32674 7773 ft 333 kts 290°
2026-04-30 21:36 40.29615 -3.35542 7586 ft 322 kts 285°
2026-04-30 21:37 40.29253 -3.43391 7151 ft 280 kts 228°
2026-04-30 21:37 40.27926 -3.45147 7045 ft 265 kts 221°
2026-04-30 21:37 40.26698 -3.46889 6884 ft 257 kts 234°
2026-04-30 21:37 40.25606 -3.48684 6698 ft 248 kts 217°
2026-04-30 21:38 40.24078 -3.49558 6504 ft 238 kts 183°
2026-04-30 21:38 40.22510 -3.49165 6328 ft 228 kts 148°
2026-04-30 21:38 40.21439 -3.47711 6191 ft 224 kts 114°
2026-04-30 21:38 40.20953 -3.45789 6120 ft 223 kts 104°
2026-04-30 21:39 40.20576 -3.43814 6045 ft 224 kts 100°
2026-04-30 21:39 40.20666 -3.41801 5935 ft 225 kts 68°
2026-04-30 21:39 40.21651 -3.40247 5884 ft 227 kts 32°
2026-04-30 21:39 40.23170 -3.39760 5846 ft 231 kts 356°
2026-04-30 21:40 40.24687 -3.40447 5851 ft 234 kts 333°
2026-04-30 21:40 40.26197 -3.41149 5881 ft 229 kts 348°
2026-04-30 21:40 40.27737 -3.41823 5616 ft 242 kts 335°
2026-04-30 21:40 40.29250 -3.42776 5111 ft 240 kts 337°
2026-04-30 21:41 40.30779 -3.43629 4608 ft 237 kts 339°
2026-04-30 21:41 40.32296 -3.44432 4072 ft 230 kts 339°
2026-04-30 21:41 40.33751 -3.45195 3465 ft 220 kts 340°
2026-04-30 21:41 40.35101 -3.45902 3183 ft 198 kts 339°
2026-04-30 21:42 40.36314 -3.46538 2933 ft 175 kts 340°
2026-04-30 21:42 40.37024 -3.46911 2838 ft 156 kts 340°
2026-04-30 21:42 40.37972 -3.47415 2666 ft 144 kts 339°
2026-04-30 21:42 40.38888 -3.47904 2447 ft 141 kts 337°
2026-04-30 21:43 40.39759 -3.48559 2157 ft 160 kts 324°
2026-04-30 21:43 40.40354 -3.49268 2378 ft 168 kts 316°
2026-04-30 21:43 40.41155 -3.50190 2406 ft 144 kts 324°
2026-04-30 21:43 40.42045 -3.51050 2471 ft 172 kts 324°
2026-04-30 21:44 40.42908 -3.51947 2400 ft 159 kts 322°
2026-04-30 21:44 40.43836 -3.52902 2363 ft 162 kts 326°
2026-04-30 21:44 40.44721 -3.53764 2156 ft 164 kts 322°
2026-04-30 21:44 40.45562 -3.54645 1984 ft 146 kts 323°
2026-04-30 21:45 40.46391 -3.55453 1975 ft 140 kts 324°
2026-04-30 21:45 40.47020 -3.56115 1982 ft 97 kts 320°
2026-04-30 21:45 40.47388 -3.56487 1993 ft 43 kts 324°
2026-04-30 21:45 40.47550 -3.56776 1996 ft 25 kts 289°
2026-04-30 21:46 40.47572 -3.56838 1996 ft 0 kts 297°